All Companies

List of Companies

Displaying Results 701 to 800 of 223,620
Company Name Location Total Records Records Last 90 Days Records Last 30 Days Most Recent Record
SINO LOGISTICS CORPORATIONBangkok, Thailand15,2311,2583892026-08-28
B&P JOOSUNG CORP.Seoul, South Korea7,0681,2563342026-08-28
RAIN LOGISTICSHuangpu, China9,1991,2564302026-08-26
CROSS-CONTINENTS TRANS INCDiamond Bar, California9,1261,2554252026-08-28
SILVER FERN FARMS LIMITEDDunedin, New Zealand38,6141,2542942026-08-27
LLIT (THAILAND) CO., LTD.Chonburi, Thailand51,0611,2543842026-08-28
YARAGHI LLCNew York33,0601,2534222026-08-28
CITY FURNITURETamarac, Florida52,6561,2513262026-08-28
KUBOTA CORPORATIONOsaka, Japan93,1531,2504602026-08-28
ORNUADublin, Ireland4,0241,2504322026-08-28
YQN LINK (US) INC.Diamond Bar, California11,5221,2473852026-08-28
FEDEX TRADE NETWORKS TRANSPORT & BRGlen Burnie, Maryland1,443,8611,2433552026-08-28
COPPERSMITH INC.El Segundo, California65,9091,2434452026-08-28
YQN LOGISTICS CO.,LTD.Shanghai, China11,9761,2403532026-08-28
WILLIAM H. KOPKE JR. INCPort Washington, New York51,2001,2383402026-08-27
HORIZON LOGISTICSNanjing, China7,7731,2374312026-08-28
EXPO FREIGHT (SHANGHAI) LIMITEDShanghai, China35,1041,2355302026-08-27
AIRLIFT TRANS PACIFIC PRIVATE LIMITEDChennai, India20,1801,2354052026-08-28
SEA TRADE ENTERPRISES CANADA INC.Mississauga, Canada79,7261,2344042026-08-28
VENUS GROUP MANAGEMENT INC.Gardena, California6,1561,2293642026-08-28
BUSA DISTRIBUTION CENTERJacksonville, Florida28,7571,2283402026-08-28
HENGFENG INTERNATIONAL FORWARDING CTemple City, California30,2981,2263652026-08-28
NTG SUPPLY CHAIN SOLUTIONS, LLCIndianapolis, Indiana6,1251,2244482026-08-28
HAYCO DOMINICAN REPUBLICLa Caleta, Dominican Republic15,0251,2193472026-08-26
POLYGROUP EVERGREEN LIMITEDChina2,4141,2185912026-08-28
PSA BDPCrum Lynne, Pennsylvania11,7661,2174382026-08-28
SUN PACIFIC MARKETINGPasadena, California8,3281,2175922026-08-28
GREENHAM AUSTRALIA PTY LTDMelbourne, Australia9,2721,2163632026-08-25
GENERAL NOLI SPEDIZIONI INTERNAZIONModena, Italy44,6451,2134042026-08-28
QVC, INC.West Chester, Pennsylvania41,6511,2134362026-08-28
W.E.S.T. FORWARDING SERVICES INCMiddleburg Heights, Ohio69,7461,2113992026-08-28
SHENZHEN RUISITUO TRADINGShenzhen, China1,5741,2103862026-08-28
GISELA SUPPLIES LLCPhoenix, Arizona1,2181,2103912026-08-28
GREAT WORLDWIDE LOGISTICS CO.LTD.Mississauga, Canada23,8101,2083762026-08-28
HANSOL GLOBAL LOGISTICS USA, INC.La Mirada, California19,7021,2064482026-08-28
K-APEX LOGISTICS (SHENZHEN) CO., LTD.Shenzhen, China105,2541,2042872026-08-28
KESTREL LINER AGENCIES LLPMedley, Florida35,7171,2034452026-08-28
ONPOINT TRADE SERVICES, LLCArcadia, California7,9501,2033452026-08-28
DELTA ELECTRONICS (AMERICAS) LTD.Fremont, California20,1881,2033752026-08-28
CNG INC.Purchase, New York3,4111,1974882026-08-28
LG ELECTRONICS CANADA INC.North York, Canada29,7311,1974292026-08-28
HEINEKEN USA INCORPORATEDWhite Plains, New York63,5781,1954382026-08-28
MATRIX SUPPLY CHAIN MANAGEMENTShanghai, China24,2451,1924102026-08-28
DLG INTERNATIONAL INCCanton, Michigan8,1741,1924052026-08-28
CHINAARTS INTERTRANS (SHANGHAI) CO.,LTD.Shanghai, China29,0871,1913502026-08-28
ESTEE LAUDER INTL INCMelville, New York28,1661,1894752026-08-28
GUANGDONG ZEALWELL HOLDINGS LTD.Huizhou, China2,5091,1895812026-08-28
KLN VIETNAM3,2651,1884812026-08-28
MOREPRO COMPANYOntario, California15,9901,1863262026-08-28
DEWELL VIET NAM COMPANY LIMITEDHo Chi Minh city, Vietnam31,4361,1853892026-08-28
CN LINK FREIGHT SERVICES INC.Monterey Park, California17,3801,1853392026-08-28
LOREAL USA PRODUCTS INCBerkeley Heights, New Jersey24,0261,1835482026-08-28
ZESPRI INTERNATIONAL LIMITEDBay of Plenty Region, New Zealand14,3641,1823462026-08-26
DEKSU E-COMMERCE LOGISTICS(GUANGZHO U)CO.,LTDGuangzhou, China8,0831,1815022026-08-28
GLOBAL OCEAN AGENCY LINES, L.L.C.Orlando, Florida68,0071,1814072026-08-28
KLN FREIGHTPhnom Penh, Cambodia2,8121,1804002026-08-28
DB GROUP AMERICA LTDDayton, New Jersey29,6361,1793642026-08-28
EMSER TILE LLCLos Angeles, California55,0321,1774622026-08-28
TAIWAN EXPRESS (USA), INC.Carson, California22,1301,1763722026-08-28
LONGSAIL USA CORPORATIONWalnut, California32,7431,1763862026-08-28
PT FOOD PACKAGING JAYAJawa Barat, Indonesia3,7041,1763802026-08-28
AMERICAN HONDA MOTOR CO., INC.Torrance, California43,8001,1746162026-08-28
SCANWELL LOGISTICS (LAX) INC.Gardena, California36,6191,1703762026-08-28
WWL CHINA LTDShanghai, China16,3881,1703822026-08-28
INTERPORT GLOBAL LOGISTICS USA INCEast Brunswick, New Jersey43,3521,1703962026-08-28
SAMSUNG ELECTRONICS VIETNAM CO LTDDong Yen, Vietnam6,0131,1693912026-08-26
PIONEER GLOBAL LOGISTICS,INC.Ontario, California39,4731,1664052026-08-28
INTERGLOBO SRLGenova, Italy22,2811,1643742026-08-28
EVONIK CORPORATIONPiscataway, New Jersey29,0571,1644412026-08-28
EXPO FREIGHT PRIVATE LIMITEDAhmedabad, India40,4221,1633912026-08-28
US PACIFIC TRANSPORT INC.New York, New York84,5281,1624052026-08-28
CUSTOMS AND TRADE SERVICES INCSt. Augustine, Florida162,6631,1612692026-08-28
BANANERA TEPEYAC, S.AGuatemala City, Guatemala23,8651,1593222026-08-27
ONTMoreno Valley, California3,2171,1584822026-08-27
SHANGHAI OLIVE SUPPLY CHAIN TECHNOLOGY CO., LTD.Pudong, China14,6621,1573372026-08-28
DSV AIR & SEA NINGBONingbo, China4,9331,1562592026-08-28
COPPER HILL, INC.Panama City, Florida22,3711,1554292026-08-28
OEC LOGISTICS CO.,LTDNingbo, China17,2611,1553082026-08-28
LG CHEM, LTD.Seoul, South Korea42,1721,1534152026-08-28
MOL LOGISTICS (USA) INC.Atlanta, Georgia31,3661,1524572026-08-28
EXPEDITORS-LOUISVILLELouisville, Kentucky53,4861,1524192026-08-28
ALFA LAVAL INCRichmond, Virginia29,9351,1503802026-08-28
GOYA FOODS INCJersey City, New Jersey55,0551,1463912026-08-28
K-APEX LOGISTICS (XIAMEN) COMPANY LIMITEDXiamen, China47,4331,1463702026-08-28
EGETRANS USA, INC.Schaumburg, Illinois45,6601,1434322026-08-28
SEAFRIGO FRANCE NORTH AMERICALe Havre, France16,1061,1433972026-08-28
MINERVA MEATS USA INCRosemont, Illinois19,1211,1425252026-08-28
BTX GLOBAL LOGISTICSSalt Lake City, Utah21,0111,1404272026-08-28
UNDER ARMOUR, INCBaltimore, Maryland42,5401,1403622026-08-28
ALLIANCE GLOBAL LOGISTICS, INCTorrance, California19,8641,1363682026-08-28
TRANS OVERSEAS CORPORATIONRomulus, Michigan43,0251,1354302026-08-28
EXPRESS LINE CORPORATIONInglewood, California38,1481,1353962026-08-28
BNX SHIPPING INC.Mississauga, Canada56,8041,1343992026-08-28
GALLAGHER TRANSPORT INTERNATIONALDenver, Colorado22,3831,1324422026-08-28
INTEGRITY LOGISTICS CORPDiamond Bar, California2,8391,1303792026-08-27
SUBOT INCOntario, California2,2161,1303432026-08-28
ATC TIRE INCMoorestown, New Jersey9,7531,1283952026-08-28
JBS USA LLCGreeley, Colorado36,5991,1263482026-08-27
YLA (AMERICAS) INC.Secaucus, New Jersey51,3911,1254792026-08-28
PRIORITY CUSTOMS BROKERMiami, Florida41,3931,1243892026-08-28